TimeEST,TemperatureF,Dew PointF,Humidity,Sea Level PressureIn,VisibilityMPH,Wind Direction,Wind SpeedMPH,Gust SpeedMPH,PrecipitationIn,Events,Conditions,WindDirDegrees,DateUTC
12:51 AM,25.0,23.0,92,30.38,6.0,Calm,Calm,-,N/A,,Clear,0,2012-11-15 05:51:00
1:51 AM,25.0,23.0,92,30.37,6.0,Calm,Calm,-,N/A,,Clear,0,2012-11-15 06:51:00
2:51 AM,26.1,23.0,88,30.38,6.0,Calm,Calm,-,N/A,,Clear,0,2012-11-15 07:51:00
3:51 AM,25.0,23.0,92,30.37,6.0,Calm,Calm,-,N/A,,Clear,0,2012-11-15 08:51:00
4:51 AM,24.1,21.0,88,30.37,5.0,Calm,Calm,-,N/A,,Clear,0,2012-11-15 09:51:00
5:51 AM,21.9,19.0,89,30.39,6.0,Calm,Calm,-,N/A,,Clear,0,2012-11-15 10:51:00
6:51 AM,21.0,18.0,88,30.40,7.0,Calm,Calm,-,N/A,,Clear,0,2012-11-15 11:51:00
7:51 AM,23.0,19.9,88,30.41,4.0,Calm,Calm,-,N/A,,Clear,0,2012-11-15 12:51:00
8:51 AM,28.9,25.0,85,30.39,5.0,Calm,Calm,-,N/A,,Clear,0,2012-11-15 13:51:00
9:51 AM,34.0,28.9,82,30.40,7.0,Calm,Calm,-,N/A,,Clear,0,2012-11-15 14:51:00
10:51 AM,39.0,28.0,65,30.38,10.0,Calm,Calm,-,N/A,,Clear,0,2012-11-15 15:51:00
11:51 AM,45.0,26.1,48,30.35,10.0,Calm,Calm,-,N/A,,Clear,0,2012-11-15 16:51:00
12:51 PM,46.9,26.1,44,30.33,10.0,WNW,3.5,-,N/A,,Clear,290,2012-11-15 17:51:00
1:51 PM,50.0,25.0,38,30.31,10.0,NNE,3.5,-,N/A,,Clear,20,2012-11-15 18:51:00
2:51 PM,51.1,26.1,38,30.30,10.0,NW,4.6,-,N/A,,Clear,310,2012-11-15 19:51:00
3:51 PM,46.9,27.0,46,30.30,10.0,NW,5.8,-,N/A,,Clear,320,2012-11-15 20:51:00
4:51 PM,45.0,26.1,48,30.31,10.0,North,4.6,-,N/A,,Clear,350,2012-11-15 21:51:00
5:51 PM,37.9,27.0,65,30.33,10.0,Calm,Calm,-,N/A,,Clear,0,2012-11-15 22:51:00
6:51 PM,35.1,27.0,72,30.35,10.0,Calm,Calm,-,N/A,,Clear,0,2012-11-15 23:51:00
7:51 PM,30.9,26.1,82,30.36,10.0,Calm,Calm,-,N/A,,Clear,0,2012-11-16 00:51:00
8:51 PM,30.0,26.1,85,30.35,9.0,Calm,Calm,-,N/A,,Clear,0,2012-11-16 01:51:00
9:51 PM,30.0,26.1,85,30.35,10.0,Calm,Calm,-,N/A,,Clear,0,2012-11-16 02:51:00
10:51 PM,28.0,25.0,88,30.35,10.0,Calm,Calm,-,N/A,,Clear,0,2012-11-16 03:51:00
11:51 PM,26.1,21.9,84,30.35,8.0,Calm,Calm,-,N/A,,Clear,0,2012-11-16 04:51:00